This is the latest recevied weather packets stored in our database for station/object DM4XI-13. If no packets are shown the sender has not sent any weather packets the latest 10 day(s).
| Time | Temp. | Humidity | Pressure | Rain* | Wind** | Luminosity | Snow |
|---|---|---|---|---|---|---|---|
| 1777140001 | 16.67° C | 28% | 1013.3 hPa | 0 mm | 0.45 m/s, 286° | 11 W/m² | - |
| 1777139940 | 16.67° C | 29% | 1013.2 hPa | 0 mm | 0.89 m/s, 274° | 11 W/m² | - |
| 1777139879 | 16.67° C | 28% | 1013.3 hPa | 0 mm | 0.89 m/s, 261° | 12 W/m² | - |
| 1777139818 | 16.67° C | 29% | 1013.3 hPa | 0 mm | 0.89 m/s, 339° | 12 W/m² | - |
| 1777139757 | 16.67° C | 29% | 1013.1 hPa | 0 mm | 0 m/s | 13 W/m² | - |
| 1777139696 | 16.67° C | 29% | 1013.3 hPa | 0 mm | 0.45 m/s, 292° | 13 W/m² | - |
| 1777139635 | 16.67° C | 28% | 1013.3 hPa | 0 mm | 0.89 m/s, 233° | 14 W/m² | - |
| 1777139574 | 16.67° C | 28% | 1013.2 hPa | 0 mm | 1.34 m/s, 302° | 14 W/m² | - |
| 1777139513 | 17.22° C | 28% | 1013.2 hPa | 0 mm | 0.45 m/s, 224° | 14 W/m² | - |
| 1777139452 | 17.22° C | 28% | 1013.3 hPa | 0 mm | 0 m/s | 15 W/m² | - |
| 1777139391 | 17.22° C | 28% | 1013.1 hPa | 0 mm | 0.89 m/s, 229° | 15 W/m² | - |
| 1777139330 | 17.22° C | 28% | 1013.1 hPa | 0 mm | 0.45 m/s, 223° | 16 W/m² | - |
| 1777139269 | 17.22° C | 27% | 1013.3 hPa | 0 mm | 0.89 m/s, 264° | 16 W/m² | - |
| 1777139208 | 17.78° C | 27% | 1013.2 hPa | 0 mm | 0.89 m/s, 257° | 17 W/m² | - |
| 1777139147 | 17.78° C | 27% | 1013.2 hPa | 0 mm | 0.89 m/s, 234° | 19 W/m² | - |
| 1777139086 | 17.78° C | 28% | 1013.2 hPa | 0 mm | 0.45 m/s, 207° | 21 W/m² | - |
| 1777139025 | 17.78° C | 28% | 1013.1 hPa | 0 mm | 0.45 m/s, 243° | 22 W/m² | - |
| 1777138964 | 17.78° C | 27% | 1013.1 hPa | 0 mm | 1.34 m/s, 316° | 23 W/m² | - |
| 1777138903 | 17.78° C | 28% | 1013.1 hPa | 0 mm | 0.89 m/s, 310° | 23 W/m² | - |
| 1777138842 | 17.78° C | 28% | 1012.9 hPa | 0 mm | 0.89 m/s, 272° | 24 W/m² | - |
| 1777138781 | 17.78° C | 28% | 1013.1 hPa | 0 mm | 0.89 m/s, 245° | 23 W/m² | - |
| 1777138719 | 17.78° C | 27% | 1013 hPa | 0 mm | 0.45 m/s, 238° | 22 W/m² | - |
| 1777138658 | 17.78° C | 27% | 1013.1 hPa | 0 mm | 0.89 m/s, 234° | 21 W/m² | - |
| 1777138598 | 17.78° C | 28% | 1013 hPa | 0 mm | 0.89 m/s, 285° | 21 W/m² | - |
| 1777138537 | 18.33° C | 27% | 1012.9 hPa | 0 mm | 1.34 m/s, 246° | 22 W/m² | - |
* Rain latest hour (hover to see other rain measurements)
** Current wind speed in m/s (hover to see current wind gust speed)